Simultaneous Nadir Overpasses (SNOs) Predictions

Prediction of SNOs between AQUA and NOAA-19 Satellite Orbit:

Table of predicted SNOs for the next 14.0 days since TLE Epoch: 8/1/2015
Index Date (AQUA) Time (AQUA) Lat,Lon (AQUA) SZA (AQUA ) Date (NOAA-19) Time (NOAA-19) Lat,Lon (NOAA-19) SZA (NOAA-19 ) Distance(km) Time Diff (sec)
1 08/02/2015 19:28:16 80.23,-144.47 64.27 08/02/2015 19:28:02 80.24,-144.51 64.29 1.09 14
2 08/05/2015 00:12:36 80.30, 143.86 64.95 08/05/2015 00:11:23 80.30, 143.89 64.98 0.52 73
3 08/05/2015 01:02:00 -80.22, -47.78 115.18 08/05/2015 01:02:25 -80.22, -47.75 115.19 0.56 25
4 08/07/2015 05:46:20 -80.28,-119.45 114.48 08/07/2015 05:45:47 -80.29,-119.56 114.44 2.25 33
5 08/07/2015 06:35:44 80.20, 48.97 65.39 08/07/2015 06:36:40 80.21, 48.87 65.38 2.05 56
6 08/09/2015 11:20:04 80.27, -22.78 66.13 08/09/2015 11:20:01 80.27, -22.76 66.13 0.62 3
7 08/11/2015 16:04:23 80.32, -94.28 66.84 08/11/2015 16:03:22 80.33, -94.43 66.89 2.99 61
8 08/11/2015 16:53:47 -80.23, 74.17 113.31 08/11/2015 16:54:24 -80.23, 74.24 113.33 1.33 37
9 08/13/2015 21:38:07 -80.31, 2.35 112.52 08/13/2015 21:37:46 -80.31, 2.30 112.51 0.96 21




NCC Satellite Simultaneous Nadir Overpasses (SNOs) Prediction Service
